| time (UTC) | temp F | wind direction | speed knots | gust knots | rain 1hr in | rain 24hr in | rain mn in | humidity % | barometer mb |
| 20260906220042 | 98 | 62 | 5.2 | 11.3 | 0.00 | 0.00 | 0.00 | 36 | 1012.8 |
| 20260906214540 | 97 | 65 | 2.6 | 9.6 | 0.00 | 0.00 | 0.00 | 38 | 1013.2 |
| 20260906213044 | 100 | 62 | 4.3 | 11.3 | 0.00 | 0.00 | 0.00 | 36 | 1013.2 |
| 20260906211543 | 99 | 127 | 2.6 | 8.7 | 0.00 | 0.00 | 0.00 | 36 | 1013.4 |
| 20260906210048 | 99 | 133 | 2.6 | 11.3 | 0.00 | 0.00 | 0.00 | 36 | 1013.6 |
| 20260906204543 | 99 | 112 | 4.3 | 11.3 | 0.00 | 0.00 | 0.00 | 35 | 1013.8 |
| 20260906203042 | 98 | 169 | 2.6 | 7.8 | 0.00 | 0.00 | 0.00 | 38 | 1013.9 |
| 20260906201550 | 98 | 43 | 6.1 | 10.4 | 0.00 | 0.00 | 0.00 | 38 | 1014.1 |
| 20260906200043 | 96 | 34 | 3.5 | 8.7 | 0.00 | 0.00 | 0.00 | 40 | 1014.1 |
| 20260906194542 | 96 | 42 | 6.1 | 11.3 | 0.00 | 0.00 | 0.00 | 40 | 1014.4 |
| 20260906193042 | 96 | 105 | 2.6 | 7.8 | 0.00 | 0.00 | 0.00 | 39 | 1014.5 |
| 20260906191543 | 96 | 117 | 3.5 | 7.0 | 0.00 | 0.00 | 0.00 | 39 | 1014.9 |
| 20260906190056 | 95 | 56 | 1.7 | 9.6 | 0.00 | 0.00 | 0.00 | 42 | 1014.9 |
| 20260906184551 | 98 | 137 | 4.3 | 12.2 | 0.00 | 0.00 | 0.00 | 39 | 1015.0 |
| 20260906183050 | 96 | 53 | 2.6 | 9.6 | 0.00 | 0.00 | 0.00 | 40 | 1015.2 |
| 20260906181542 | 97 | 62 | 3.5 | 9.6 | 0.00 | 0.00 | 0.00 | 39 | 1015.6 |
| 20260906180045 | 94 | 67 | 3.5 | 11.3 | 0.00 | 0.00 | 0.00 | 44 | 1015.8 |
| 20260906174546 | 94 | 136 | 3.5 | 7.8 | 0.00 | 0.00 | 0.00 | 43 | 1016.0 |
| 20260906173044 | 92 | 40 | 0.0 | 8.7 | 0.00 | 0.00 | 0.00 | 46 | 1016.3 |
| 20260906171541 | 94 | 46 | 5.2 | 10.4 | 0.00 | 0.00 | 0.00 | 44 | 1016.4 |
| 20260906170043 | 94 | 71 | 2.6 | 9.6 | 0.00 | 0.00 | 0.00 | 45 | 1016.6 |
| 20260906164542 | 93 | 15 | 3.5 | 9.6 | 0.00 | 0.00 | 0.00 | 46 | 1016.7 |
| 20260906163045 | 92 | 141 | 3.5 | 12.2 | 0.00 | 0.00 | 0.00 | 46 | 1016.7 |
| 20260906161542 | 92 | 49 | 3.5 | 10.4 | 0.00 | 0.00 | 0.00 | 47 | 1016.8 |
| 20260906154555 | 91 | 117 | 0.9 | 6.1 | 0.00 | 0.00 | 0.00 | 50 | 1016.7 |
| 20260906153044 | 90 | 239 | 2.6 | 7.0 | 0.00 | 0.00 | 0.00 | 52 | 1016.7 |
| 20260906151542 | 89 | 292 | 2.6 | 6.1 | 0.00 | 0.00 | 0.00 | 54 | 1016.8 |
| 20260906150048 | 88 | 246 | 2.6 | 6.1 | 0.00 | 0.00 | 0.00 | 56 | 1016.7 |
| 20260906144543 | 88 | 313 | 2.6 | 6.1 | 0.00 | 0.00 | 0.00 | 57 | 1016.7 |
| 20260906143044 | 85 | 224 | 1.7 | 3.5 | 0.00 | 0.00 | 0.00 | 61 | 1016.5 |
| 20260906141544 | 83 | 241 | 0.9 | 2.6 | 0.00 | 0.00 | 0.00 | 65 | 1016.6 |
| 20260906140047 | 82 | 250 | 0.9 | 3.5 | 0.00 | 0.00 | 0.00 | 67 | 1016.5 |
| 20260906134555 | 80 | 238 | 0.9 | 3.5 | 0.00 | 0.00 | 0.00 | 69 | 1016.5 |
| 20260906133107 | 79 | 204 | 0.9 | 3.5 | 0.00 | 0.00 | 0.00 | 72 | 1016.4 |
| 20260906131541 | 77 | 187 | 0.9 | 2.6 | 0.00 | 0.00 | 0.00 | 75 | 1016.3 |
| 20260906130042 | 76 | 185 | 0.9 | 2.6 | 0.00 | 0.00 | 0.00 | 77 | 1016.3 |
| 20260906124543 | 75 | 178 | 0.0 | 1.7 | 0.00 | 0.00 | 0.00 | 78 | 1016.0 |
| 20260906123044 | 75 | 0 | 0.0 | 3.5 | 0.00 | 0.00 | 0.00 | 78 | 1015.9 |
| 20260906121543 | 74 | 188 | 0.0 | 0.9 | 0.00 | 0.00 | 0.00 | 79 | 1015.6 |
| 20260906120042 | 75 | 186 | 0.0 | 1.7 | 0.00 | 0.00 | 0.00 | 79 | 1015.5 |
| 20260906114548 | 75 | 0 | 0.0 | 1.7 | 0.00 | 0.00 | 0.00 | 78 | 1015.3 |
| 20260906113043 | 75 | 0 | 0.0 | 1.7 | 0.00 | 0.00 | 0.00 | 77 | 1015.2 |
| 20260906111543 | 75 | 184 | 0.9 | 3.5 | 0.00 | 0.00 | 0.00 | 78 | 1015.2 |
| 20260906110043 | 75 | 0 | 0.0 | 0.9 | 0.00 | 0.00 | 0.00 | 78 | 1015.0 |
| 20260906104600 | 75 | 148 | 0.0 | 1.7 | 0.00 | 0.00 | 0.00 | 77 | 1015.1 |
| 20260906103042 | 76 | 0 | 0.0 | 1.7 | 0.00 | 0.00 | 0.00 | 77 | 1015.0 |
| 20260906101545 | 75 | 0 | 0.0 | 0.0 | 0.00 | 0.00 | 0.00 | 75 | 1014.9 |
| 20260906100043 | 76 | 0 | 0.0 | 2.6 | 0.00 | 0.00 | 0.00 | 74 | 1015.0 |
| 20260906094543 | 77 | 195 | 1.7 | 4.3 | 0.00 | 0.00 | 0.00 | 73 | 1015.0 |
| 20260906093058 | 77 | 161 | 0.9 | 3.5 | 0.00 | 0.00 | 0.00 | 73 | 1014.7 |
| 20260906091541 | 77 | 186 | 0.9 | 5.2 | 0.00 | 0.00 | 0.00 | 73 | 1014.7 |
| 20260906090043 | 78 | 165 | 0.9 | 3.5 | 0.00 | 0.00 | 0.00 | 72 | 1014.7 |
| 20260906084545 | 78 | 167 | 0.9 | 4.3 | 0.00 | 0.00 | 0.00 | 71 | 1014.6 |
| 20260906083044 | 78 | 205 | 1.7 | 6.1 | 0.00 | 0.00 | 0.00 | 71 | 1014.6 |
| 20260906081544 | 79 | 192 | 2.6 | 5.2 | 0.00 | 0.00 | 0.00 | 70 | 1014.4 |
| 20260906080043 | 79 | 161 | 0.9 | 6.1 | 0.00 | 0.00 | 0.00 | 70 | 1014.6 |
| 20260906074542 | 79 | 172 | 1.7 | 5.2 | 0.00 | 0.00 | 0.00 | 70 | 1014.7 |
| 20260906073043 | 79 | 159 | 2.6 | 7.0 | 0.00 | 0.00 | 0.00 | 68 | 1014.8 |
| 20260906071545 | 80 | 201 | 2.6 | 7.8 | 0.00 | 0.00 | 0.00 | 68 | 1014.8 |
| 20260906070044 | 80 | 173 | 1.7 | 6.1 | 0.00 | 0.00 | 0.00 | 67 | 1014.9 |
| 20260906064542 | 81 | 157 | 2.6 | 7.8 | 0.00 | 0.00 | 0.00 | 67 | 1015.1 |
| 20260906063045 | 81 | 134 | 1.7 | 7.0 | 0.00 | 0.00 | 0.00 | 66 | 1015.2 |
| 20260906061546 | 82 | 191 | 3.5 | 7.0 | 0.00 | 0.00 | 0.00 | 64 | 1015.4 |
| 20260906060044 | 82 | 177 | 2.6 | 7.8 | 0.00 | 0.00 | 0.00 | 63 | 1015.6 |
| 20260906054554 | 82 | 144 | 3.5 | 7.0 | 0.00 | 0.00 | 0.00 | 63 | 1015.8 |
| 20260906053044 | 83 | 151 | 3.5 | 7.8 | 0.00 | 0.00 | 0.00 | 61 | 1015.5 |
| 20260906051542 | 83 | 192 | 4.3 | 10.4 | 0.00 | 0.00 | 0.00 | 60 | 1015.4 |
| 20260906050059 | 83 | 153 | 2.6 | 7.8 | 0.00 | 0.00 | 0.00 | 59 | 1015.4 |
| 20260906044546 | 84 | 159 | 3.5 | 8.7 | 0.00 | 0.00 | 0.00 | 56 | 1015.3 |
| 20260906043042 | 84 | 155 | 3.5 | 8.7 | 0.00 | 0.00 | 0.00 | 55 | 1015.3 |
| 20260906041543 | 85 | 168 | 2.6 | 7.8 | 0.00 | 0.00 | 0.00 | 53 | 1015.3 |
| 20260906040044 | 84 | 169 | 2.6 | 7.0 | 0.00 | 0.00 | 0.00 | 52 | 1015.0 |
| 20260906034546 | 84 | 127 | 0.9 | 3.5 | 0.00 | 0.00 | 0.00 | 52 | 1015.2 |
| 20260906033053 | 84 | 128 | 0.9 | 3.5 | 0.00 | 0.00 | 0.00 | 51 | 1015.0 |
| 20260906031550 | 84 | 100 | 0.9 | 3.5 | 0.00 | 0.00 | 0.00 | 51 | 1015.0 |
| 20260906030042 | 86 | 101 | 0.9 | 3.5 | 0.00 | 0.00 | 0.00 | 49 | 1014.7 |
| 20260906024544 | 86 | 136 | 0.9 | 3.5 | 0.00 | 0.00 | 0.00 | 49 | 1014.4 |
| 20260906023044 | 87 | 121 | 0.9 | 4.3 | 0.00 | 0.00 | 0.00 | 48 | 1014.2 |
| 20260906021550 | 87 | 165 | 0.9 | 3.5 | 0.00 | 0.00 | 0.00 | 47 | 1013.9 |
| 20260906020053 | 88 | 132 | 1.7 | 4.3 | 0.00 | 0.00 | 0.00 | 46 | 1013.9 |
| 20260906014554 | 89 | 157 | 0.9 | 3.5 | 0.00 | 0.00 | 0.00 | 45 | 1013.6 |
| 20260906013046 | 90 | 124 | 1.7 | 5.2 | 0.00 | 0.00 | 0.00 | 43 | 1013.5 |
| 20260906011542 | 90 | 130 | 1.7 | 4.3 | 0.00 | 0.00 | 0.00 | 42 | 1013.5 |
| 20260906010048 | 91 | 138 | 1.7 | 6.1 | 0.00 | 0.00 | 0.00 | 41 | 1013.2 |
| 20260906004543 | 92 | 107 | 2.6 | 7.8 | 0.00 | 0.00 | 0.00 | 40 | 1013.2 |
| 20260906003042 | 93 | 157 | 2.6 | 7.8 | 0.00 | 0.00 | 0.00 | 40 | 1013.2 |
| 20260906001542 | 94 | 171 | 2.6 | 12.2 | 0.00 | 0.00 | 0.00 | 39 | 1013.1 |
| 20260906000045 | 95 | 113 | 3.5 | 8.7 | 0.00 | 0.00 | 0.00 | 38 | 1012.9 |
| 20260905234549 | 95 | 109 | 3.5 | 8.7 | 0.00 | 0.00 | 0.00 | 37 | 1013.1 |
| 20260905233044 | 96 | 78 | 2.6 | 8.7 | 0.00 | 0.00 | 0.00 | 36 | 1012.8 |
| 20260905231546 | 96 | 126 | 2.6 | 8.7 | 0.00 | 0.00 | 0.00 | 36 | 1012.7 |
| 20260905230101 | 96 | 216 | 5.2 | 9.6 | 0.00 | 0.00 | 0.00 | 37 | 1012.6 |
| 20260905224544 | 96 | 163 | 2.6 | 7.8 | 0.00 | 0.00 | 0.00 | 37 | 1012.7 |
| 20260905223043 | 97 | 127 | 2.6 | 9.6 | 0.00 | 0.00 | 0.00 | 36 | 1012.6 |
| 20260905221546 | 98 | 145 | 2.6 | 7.0 | 0.00 | 0.00 | 0.00 | 35 | 1012.7 |